SKCUBE (42789 NORAD) Tracking and Keplerian Element Data

This shows tracking and keplerian element data for the satellite.

Feedback or suggestion? Click here.




ElementValue
Catalog42789
NameSKCUBE
Epoch Orbit5870
Epoch Day195.75160743
Epoch Year2018
RAAN255.1759
Inclination97.3992
Eccentricity0.0011255
Argument of Perigee348.3883
Mean Anonmoly11.7092
Mean Motion15.2196212
Decay Rate1.017E-05
L11 42789U 17036AA 18195.75160743 .00001017 00000-0 47615-4 0 9990
L22 42789 97.3992 255.1759 0011255 348.3883 11.7092 15.21962120 58705

Live tracking and technical data element details for SKCUBE (NORAD 42789). SKCUBE can be tracked NOW for your location showing map with azimuth and elevation plus other details from your city location.

Track the satellite on the map from your city or location and see movement details for azimuth, elevation, latitude, longitude, range, height, and movement on the map or in text.







IsCatalogInMostPopularTable: catalog: 42789, numindb: 98
Update: records affected: 1



GetName: 42789 SKCUBE

Hit Count: updated at: Sun, 15 Jul 2018 23:17:04 GMT